Location: Elstree
(51.6403°N, 0.2969°W)
Time: 14:22:26
(UTC+00:00)

Cosmos 1727 Rocket - Pass Details

Date: 03 March 2021
Orbit: 961 x 996 km, 82.9° (Epoch: 13 April)

Event Time Altitude Azimuth Distance (km) Brightness Sun altitude
Rises 20:25:50 0° 348° (NNW) 3,660 7.5 -25.2°
Reaches altitude 10° 20:28:21 10° 346° (NNW) 2,710 6.8 -25.6°
Maximum altitude 20:34:30 69° 265° (W) 1,029 4.2 -26.5°
Enters shadow 20:37:45 29° 189° (S) 1,681 5.0 -26.9°
